Theta_e
318 320 322 323 324 325 325 325 326 327 329 330 330 328 328 328 325 323 320 326 324 324 321 319 318 313 312 312 315 316 306 305 305 304 304 312 310 312 313 313 317 319 317 326 334
318 319 320 322 323 324 324 323 324 326 328 329 330 328 327 326 323 320 329 332 331 326 321 317 316 311 313 307 312 314 309 306 313 311 307 310 311 310 310 312 312 315 322 330 333
318 318 320 322 322 323 324 323 323 324 327 327 328 327 326 325 316 318 331 333 332 325 326 320 321 313 311 311 307 310 310 314 312 308 308 308 310 311 309 309 313 313 319 328 330
317 318 320 321 322 323 324 323 324 324 326 326 327 326 324 323 304 320 330 332 332 328 326 321 316 308 310 307 311 304 311 313 307 306 304 305 308 307 309 312 309 316 322 327 328
316 317 319 320 321 322 323 323 323 323 322 325 327 325 320 312 313 316 329 331 327 323 323 321 313 310 307 308 311 308 311 308 305 304 305 304 304 305 306 312 311 314 323 324 326
316 316 317 318 320 321 322 322 322 322 322 321 327 324 316 306 323 315 319 326 323 320 321 324 319 315 313 309 308 311 312 306 307 308 305 303 305 303 308 309 309 314 320 323 326
315 315 316 317 319 321 321 322 321 322 321 321 324 322 313 311 322 320 319 324 323 319 317 323 323 313 311 304 307 306 304 305 305 304 308 305 302 301 309 309 308 311 315 320 324
314 314 315 316 317 319 320 320 321 321 320 320 318 320 308 321 323 320 322 321 325 322 321 323 318 315 311 306 305 300 301 299 309 307 304 304 304 310 311 308 308 310 312 316 321
313 314 314 315 316 317 319 320 319 320 320 321 312 315 303 316 314 320 321 317 321 316 319 315 315 309 302 304 296 297 296 298 304 308 307 302 303 311 315 308 307 309 311 314 318
313 313 314 315 316 316 316 319 319 319 317 316 313 307 304 305 314 317 320 319 311 308 307 306 304 301 300 301 296 292 296 304 304 303 302 301 302 309 308 305 308 311 310 312 315
312 313 313 314 315 315 315 313 307 305 308 301 300 304 304 312 315 313 318 313 307 306 301 304 298 297 302 304 306 304 302 304 303 301 299 300 303 306 310 308 307 307 309 309 313
312 312 312 314 314 314 313 305 306 308 298 306 305 302 309 310 303 308 316 306 300 298 304 301 296 304 307 305 304 302 302 301 303 298 297 301 301 304 305 305 305 306 308 308 310
311 311 312 313 313 311 308 307 313 310 297 299 303 300 304 308 302 303 311 307 300 299 301 298 300 305 304 302 299 300 300 300 298 299 300 299 298 302 306 307 305 303 305 307 308
310 310 311 311 306 308 304 310 312 310 287 290 297 302 304 307 300 308 311 307 304 297 300 300 304 302 301 299 301 297 302 301 298 296 294 299 291 299 303 306 308 306 305 305 306
310 309 310 311 304 303 305 311 311 300 277 294 298 307 304 301 300 301 310 304 300 298 299 298 298 299 298 300 302 299 300 298 298 297 296 295 290 295 301 300 304 309 310 310 309
309 309 307 306 306 307 310 312 305 283 277 289 294 295 295 296 298 299 301 304 306 300 302 296 302 301 301 302 302 299 297 297 296 295 287 292 292 293 296 299 302 305 308 311 311
308 308 305 306 299 309 311 303 284 278 287 284 286 294 294 290 294 294 293 294 293 292 291 293 296 298 301 298 301 299 294 287 285 285 284 290 291 294 300 302 303 303 304 306 308
306 306 304 304 306 308 304 290 277 285 285 288 290 294 290 292 292 293 291 292 298 296 292 289 285 294 299 298 295 296 294 287 280 282 286 286 286 293 301 302 301 301 301 306 302
304 302 301 303 306 306 294 279 281 286 290 288 290 288 288 291 291 292 290 293 296 298 290 289 287 297 298 300 298 295 291 296 287 282 285 290 293 298 300 301 301 301 300 301 303
301 298 298 304 307 301 288 281 286 291 291 291 286 289 285 287 288 289 290 296 295 299 300 294 283 293 293 297 298 296 299 288 290 281 280 287 288 290 294 297 297 299 300 301 301
299 290 299 304 305 292 281 285 287 292 293 290 289 288 288 288 291 289 291 297 299 298 298 296 289 286 290 291 291 291 292 293 293 290 285 283 288 297 297 297 297 299 299 301 301
296 285 303 305 287 288 284 287 292 290 293 291 289 293 291 293 292 293 291 296 301 298 292 295 290 283 287 289 291 295 293 293 287 284 288 287 288 296 297 298 298 298 299 300 301
291 291 303 302 281 283 288 288 290 290 290 289 287 293 297 293 290 295 296 300 299 296 294 293 288 282 284 288 289 290 293 294 293 291 287 286 289 299 297 295 298 298 300 301 301
291 284 292 294 293 287 286 287 287 293 292 291 289 295 295 293 296 293 294 297 298 297 297 296 290 287 282 286 289 287 291 293 292 287 288 289 292 293 295 296 297 298 301 301 301
290 286 292 283 286 289 290 288 286 286 291 293 289 288 293 290 291 291 293 294 296 297 296 295 287 289 288 291 290 288 289 291 290 291 288 291 291 296 298 297 300 302 302 300 300
286 286 292 291 292 289 289 287 286 287 289 286 287 292 294 292 293 290 292 292 291 294 293 296 286 287 283 289 289 287 289 291 292 293 292 292 291 299 301 301 299 300 300 299 299
292 293 291 290 289 287 287 289 288 291 291 293 291 293 293 296 299 298 298 297 296 293 292 291 287 287 282 287 287 284 287 289 291 293 293 289 294 297 296 297 298 299 300 299 300
Wind_Speed
20 19 18 18 17 19 19 18 10 15 17 18 18 16 17 14 9 8 14 6 5 5 1 5 7 3 3 1 3 2 3 7 6 5 4 7 10 3 2 6 4 6 4 5 20
20 19 19 19 18 18 19 19 19 13 18 18 19 17 18 16 12 17 5 8 7 6 5 12 11 9 6 2 2 3 6 9 3 3 2 8 9 9 6 7 6 8 6 11 17
19 19 19 18 19 19 21 20 19 17 20 18 20 19 18 17 10 12 16 14 9 7 7 7 9 10 10 7 6 6 9 8 7 3 2 5 8 3 7 8 9 12 13 17 17
18 19 19 18 18 19 20 21 20 20 19 18 21 21 20 20 11 11 25 19 13 9 10 7 12 12 9 10 11 4 11 8 3 4 2 4 3 7 9 3 6 4 16 18 19
18 17 18 17 16 18 20 22 23 20 8 18 23 24 14 10 14 7 10 18 16 13 14 16 15 14 14 10 9 12 5 4 2 5 4 2 4 5 8 11 3 3 14 17 18
17 15 14 15 15 16 19 21 21 16 13 12 24 26 13 21 12 14 12 16 18 19 16 16 11 9 13 8 13 4 14 4 6 5 4 4 6 3 8 2 8 9 14 14 17
16 14 11 10 13 15 17 20 19 19 19 18 13 19 12 16 15 13 15 20 20 22 19 16 7 11 4 7 2 1 8 7 7 6 6 6 12 12 14 6 9 12 12 14 15
15 15 13 9 8 13 16 17 20 18 15 16 19 17 6 14 12 16 16 14 16 16 14 13 5 4 6 4 7 5 4 8 13 11 5 6 17 18 16 10 11 13 13 14 15
14 15 14 11 8 7 12 15 15 19 15 17 8 11 11 10 17 17 16 17 18 12 13 9 10 5 1 9 3 3 7 15 10 10 8 11 10 15 11 11 12 11 13 14 15
15 15 13 11 9 7 6 14 15 20 15 4 12 13 6 20 23 17 16 22 15 15 12 8 7 7 8 15 14 6 7 15 17 8 8 13 17 11 6 10 14 14 13 13 14
16 14 12 11 11 9 7 6 8 7 16 10 10 15 12 16 20 19 21 21 10 16 13 17 11 18 23 21 14 16 19 18 10 6 6 14 18 17 16 14 14 13 14 12 15
18 15 13 14 14 10 7 5 1 2 6 13 21 19 10 24 16 21 28 15 13 19 19 14 23 21 20 22 17 11 14 13 4 3 5 13 19 16 15 18 15 16 15 14 14
19 17 15 13 12 7 11 10 6 10 3 5 20 18 12 20 19 24 31 20 22 23 26 25 16 17 18 19 17 14 16 12 10 4 10 12 23 23 23 21 17 16 14 15 14
21 17 15 14 5 9 11 10 9 8 4 5 12 11 12 10 11 25 26 17 12 22 23 15 7 20 19 22 19 17 7 8 6 5 7 0 9 12 8 15 21 19 18 17 15
21 18 17 17 5 13 4 10 11 7 7 11 10 15 13 13 21 18 26 7 26 20 14 11 18 21 23 21 15 9 12 9 7 9 11 14 8 7 11 14 15 16 18 20 18
20 19 15 8 2 6 6 15 7 4 9 4 6 12 16 7 18 12 14 8 14 22 9 9 10 15 17 14 16 13 11 7 5 6 10 16 14 7 11 8 7 11 15 17 18
19 17 12 6 7 8 7 8 5 7 4 4 6 17 22 9 11 21 21 20 17 22 18 10 17 6 9 20 14 16 16 6 5 7 8 4 9 13 5 4 10 11 9 8 10
17 12 7 6 5 6 6 4 9 4 6 1 6 23 20 14 15 24 25 22 17 15 17 16 11 18 16 24 11 21 19 7 9 7 4 1 10 4 8 6 6 9 11 9 7
17 6 6 8 10 6 9 11 10 4 4 7 7 25 9 10 10 21 19 29 19 22 17 19 5 18 21 12 17 22 20 4 6 2 1 7 8 11 15 13 10 9 7 8 10
8 8 10 12 14 8 7 16 4 5 4 5 13 13 10 13 12 8 23 24 21 23 9 12 10 13 7 8 14 16 16 8 5 7 7 7 8 9 6 6 2 3 2 3 2
7 5 7 14 9 6 11 7 18 8 8 5 17 9 10 19 20 20 34 25 27 26 10 14 8 11 9 13 18 11 17 7 7 3 3 3 5 3 9 3 2 2 3 5 4
6 5 11 14 10 8 11 18 6 17 11 6 6 16 23 30 25 27 26 19 29 27 21 7 6 13 21 2 3 14 16 13 6 6 4 2 9 6 8 5 0 2 2 4 3
8 5 10 12 11 12 16 16 14 11 17 11 5 15 19 20 14 21 21 15 28 26 23 12 5 12 10 4 3 18 13 17 5 1 7 6 9 8 9 3 5 1 4 5 3
4 7 6 7 9 21 20 19 9 12 12 11 10 18 20 25 9 22 18 17 23 25 15 8 7 7 13 4 13 12 19 15 12 3 8 16 17 7 8 9 8 6 5 5 6
3 5 8 10 14 19 24 21 25 13 13 11 6 25 19 17 10 15 19 20 19 18 11 11 6 6 3 6 13 20 24 21 22 29 14 22 20 19 9 9 9 10 12 8 8
6 5 5 9 21 27 27 23 28 26 13 9 13 22 25 24 19 35 25 26 25 19 18 13 5 6 4 3 10 10 17 24 31 25 22 19 26 11 11 8 11 13 11 9 7
3 3 4 14 17 19 23 25 25 22 17 22 28 27 32 34 14 18 15 13 17 27 22 14 8 5 6 5 8 0 30 24 26 22 30 22 31 5 2 9 12 11 12 12 8
Wind_Direction
240 242 242 242 237 225 222 234 238 235 222 215 191 177 154 141 135 194 226 225 171 143 293 215 211 167 81 45 105 322 347 224 208 208 158 155 182 178 58 144 168 162 345 36 139
235 238 239 235 231 227 213 214 226 244 231 219 189 177 155 149 196 220 143 132 143 173 199 210 196 175 181 153 156 163 219 226 286 230 190 173 205 159 189 167 188 173 116 139 147
237 238 238 227 228 224 213 206 214 226 234 221 189 173 156 162 207 225 157 162 165 172 227 276 232 196 205 165 171 187 234 195 256 298 321 172 204 188 230 206 206 193 165 159 163
231 237 233 225 223 223 213 204 203 221 233 218 189 168 165 183 219 194 159 162 171 177 191 211 220 187 194 196 185 199 239 273 145 134 152 203 120 213 223 192 26 255 160 169 176
227 236 227 222 221 223 214 205 207 206 221 234 192 167 168 208 214 129 153 156 168 174 191 198 211 202 201 195 191 227 182 234 142 161 146 124 203 271 239 243 152 175 155 185 188
220 220 215 214 214 221 218 212 204 201 202 268 192 167 189 207 189 140 166 174 189 186 199 203 214 216 219 213 199 256 230 206 220 220 191 218 215 243 216 214 189 184 189 194 200
212 205 203 202 208 216 217 213 208 202 202 236 242 173 201 186 177 166 164 179 195 192 186 203 212 186 146 162 176 150 206 201 195 198 226 211 238 233 244 181 206 206 201 204 205
202 199 202 195 198 205 212 209 210 191 198 209 332 179 218 194 167 167 171 166 184 201 197 178 166 178 119 333 156 204 238 204 214 193 177 206 250 222 228 217 228 211 206 198 208
195 194 193 193 187 181 205 206 208 208 196 218 303 200 178 155 174 172 165 158 167 169 179 135 151 174 141 151 70 269 206 207 190 207 201 202 255 244 221 225 242 236 215 204 202
187 187 186 189 192 179 195 202 200 201 191 187 264 224 154 199 163 168 172 151 148 152 136 160 164 183 186 208 200 159 226 213 221 178 213 220 244 251 245 243 249 247 231 212 215
187 184 189 190 185 189 164 149 193 228 186 189 227 221 148 174 142 169 160 148 142 167 172 187 185 204 188 207 213 181 201 225 199 120 236 236 255 250 240 244 248 251 240 224 224
183 181 185 187 184 183 189 225 351 56 194 191 249 270 168 150 156 158 157 146 169 175 174 171 215 196 196 200 205 229 215 220 143 138 246 268 265 254 243 241 238 243 248 238 231
177 167 165 160 174 187 206 199 100 55 292 181 210 224 210 183 161 168 171 147 169 171 189 191 189 199 203 193 200 212 208 221 224 168 230 267 272 257 243 238 230 238 242 250 236
166 154 152 145 158 183 213 195 102 83 269 250 192 191 191 161 170 166 185 162 165 181 185 218 187 188 189 195 199 201 224 226 181 241 256 195 289 280 271 223 216 223 227 231 232
158 143 152 170 163 186 159 148 113 64 243 163 161 146 160 163 128 186 182 174 182 162 164 174 170 185 192 195 197 202 164 176 230 255 276 252 262 264 242 244 234 233 227 238 222
152 148 152 170 208 128 165 132 97 191 230 174 130 183 153 133 168 146 180 210 162 152 183 124 172 180 193 184 184 125 139 144 201 256 257 244 232 252 249 271 237 253 251 238 240
161 159 158 166 184 194 154 144 174 238 66 192 184 185 151 156 168 154 165 160 160 156 172 137 168 138 185 158 185 171 160 158 205 207 243 29 238 247 306 304 290 269 274 274 261
160 146 159 193 210 158 175 153 218 189 199 203 171 168 176 146 183 158 167 166 175 182 153 162 184 185 185 176 184 194 183 172 193 199 209 113 235 260 251 265 273 273 277 269 246
141 164 180 189 200 178 175 239 194 206 178 171 191 172 138 147 148 153 176 175 180 191 174 184 136 168 175 184 163 189 202 140 106 38 316 214 245 252 243 274 291 241 256 278 254
157 184 198 189 181 179 183 213 231 209 169 185 201 194 158 159 133 156 173 189 169 205 177 183 114 175 153 171 183 189 162 158 207 177 223 223 248 241 174 230 67 190 285 30 350
162 169 187 173 165 187 207 205 209 201 180 175 213 190 178 172 150 181 181 176 180 182 189 160 123 161 165 206 181 182 182 197 180 207 235 303 252 108 213 164 197 22 2 351 346
162 181 150 152 175 193 208 214 186 204 180 222 291 225 186 178 179 180 182 186 176 165 172 121 112 155 181 49 294 199 188 186 177 189 246 19 262 148 151 168 205 62 36 16 12
165 173 161 173 176 195 213 209 228 200 213 184 242 239 208 178 172 205 195 189 163 172 162 158 129 123 170 231 218 204 199 198 150 100 181 172 259 168 155 215 223 249 3 354 3
147 168 187 193 220 193 192 205 203 221 214 181 238 246 218 185 196 194 158 174 162 176 136 122 162 174 187 131 137 185 188 201 195 187 182 225 231 168 199 220 192 203 292 314 305
168 218 194 186 204 213 199 191 200 203 220 197 250 251 196 180 156 162 140 145 165 172 154 160 139 152 88 173 158 180 183 188 199 223 206 243 237 238 232 205 232 294 302 295 279
151 197 212 217 202 205 198 205 198 206 163 185 231 233 195 181 183 166 158 162 176 176 170 185 146 123 73 155 153 173 191 200 212 214 236 248 267 255 242 256 274 284 288 278 284
191 278 273 222 202 197 201 196 201 191 206 207 202 223 192 202 176 155 155 155 169 173 174 167 134 132 131 123 114 86 209 204 218 212 223 228 237 100 4 241 244 254 274 278 268